Nashville, TN

5:33 PM CDT on May 25, 2017 (GMT -0500)
Nashville International

Weather History for KBNA - January, 2013

Change the Weather History Date:

Tuesday, January 1, 2013

  Actual Average Record
Temperature  
Mean Temperature 38 °F 38 °F  
Max Temperature 42 °F 47 °F 77 °F (1952)
Min Temperature 33 °F 29 °F 0 °F (1977)
Degree Days  
Heating Degree Days 27    
Month to date heating degree days 27  
Since 1 July heating degree days 1326  
Cooling Degree Days 0    
Month to date cooling degree days 0  
Year to date cooling degree days 0  
Moisture  
Dew Point 38 °F    
Average Humidity 93    
Maximum Humidity 100    
Minimum Humidity 85    
Precipitation  
Precipitation 0.35 in 0.11 in 3.01 in (1919)
Month to date precipitation 0.35 0.11  
Year to date precipitation 0.35 0.11  
Snow  
Snow 0.00 in - 4.40 in (1964)
Month to date snowfall 0.0  
Since 1 July snowfall T  
Snow Depth 0.00 in    
Sea Level Pressure  
Sea Level Pressure 30.07 in    
Wind  
Wind Speed 6 mph (North)    
Max Wind Speed 15 mph    
Max Gust Speed 20 mph    
Visibility 3 miles    
Events Fog , Rain    
T = Trace of Precipitation, MM = Missing Value Source: NWS Daily Summary

Daily Weather History Graph

Daily Weather History Graph

Search for Another Location

Airport or City:

Trip Planner

Search our weather history database for the weather conditions in past years. The results will help you decide how hot, cold, wet, or windy it might be!

Date:

Astronomy

Jan. 01, 2013 Rise Set
Actual Time 6:57 AM CST 4:43 PM CST
Civil Twilight 6:29 AM CST 5:11 PM CST
Nautical Twilight 5:57 AM CST 5:43 PM CST
Astronomical Twilight 5:25 AM CST 6:15 PM CST
Moon 9:05 PM CST (1/1) 9:17 AM CST (1/1)
Length of Visible Light 10h 42m
Length of Day
9h 45m
Waning Gibbous, 83% of the Moon is Illuminated
Jan 1
Waning Gibbous
Jan 4
Last Quarter
Jan 11
New
Jan 18
First Quarter
Jan 26
Full

Hourly Weather History & Observations

Time (CST) Temp. Windchill Dew Point Humidity Pressure Visibility Wind Dir Wind Speed Gust Speed Precip Events Conditions
12:28 AM 39.2 °F - 37.4 °F 93% 30.06 in 2.0 mi Calm Calm - 0.05 in Rain Rain
12:48 AM 39.2 °F - 37.4 °F 93% 30.06 in 3.0 mi Calm Calm - 0.11 in Rain Light Rain
12:53 AM 39.9 °F - 37.9 °F 93% 30.06 in 3.0 mi Calm Calm - 0.11 in Rain Light Rain
1:20 AM 39.2 °F - 37.4 °F 93% 30.06 in 2.5 mi Calm Calm - 0.03 in Rain Light Rain
1:53 AM 39.9 °F 37.8 °F 37.9 °F 93% 30.06 in 2.0 mi SSE 3.5 mph - 0.07 in Rain Rain
2:17 AM 39.2 °F 35.9 °F 37.4 °F 93% 30.05 in 3.0 mi SSE 4.6 mph - 0.04 in Rain Light Rain
2:34 AM 39.2 °F 37.0 °F 39.2 °F 100% 30.05 in 3.0 mi SSE 3.5 mph - 0.05 in Rain Light Rain
2:53 AM 39.9 °F 37.8 °F 39.0 °F 97% 30.06 in 4.0 mi South 3.5 mph - 0.06 in Rain Light Rain
3:28 AM 39.2 °F 37.0 °F 39.2 °F 100% 30.04 in 3.0 mi South 3.5 mph - 0.02 in Rain Light Rain
3:53 AM 41.0 °F 38.0 °F 39.0 °F 93% 30.04 in 3.0 mi South 4.6 mph - 0.03 in Rain Light Rain
4:01 AM 41.0 °F 37.1 °F 39.2 °F 93% 30.03 in 2.5 mi South 5.8 mph - 0.02 in Rain Light Rain
4:14 AM 41.0 °F 38.0 °F 39.2 °F 93% 30.03 in 3.0 mi South 4.6 mph - 0.02 in Rain Light Rain
4:53 AM 41.0 °F - 39.9 °F 96% 30.05 in 3.0 mi Calm Calm - 0.06 in Rain Light Rain
5:23 AM 42.8 °F - 41.0 °F 93% 30.05 in 2.5 mi Calm Calm - 0.00 in   Overcast
5:37 AM 42.8 °F - 41.0 °F 93% 30.06 in 1.8 mi Calm Calm - 0.00 in   Light Drizzle
5:43 AM 42.8 °F - 41.0 °F 93% 30.07 in 1.0 mi Calm Calm - 0.00 in   Light Drizzle
5:53 AM 42.1 °F - 41.0 °F 96% 30.07 in 1.0 mi Calm Calm - 0.00 in   Light Drizzle
6:07 AM 42.8 °F - 41.0 °F 93% 30.06 in 0.2 mi Calm Calm - 0.00 in Fog Light Drizzle
6:53 AM 42.1 °F 38.4 °F 41.0 °F 96% 30.06 in 0.2 mi North 5.8 mph - 0.00 in Fog Fog
7:19 AM 42.8 °F 40.1 °F 41.0 °F 93% 30.05 in 0.2 mi North 4.6 mph - N/A Fog Fog
7:32 AM 42.8 °F 39.3 °F 41.0 °F 93% 30.06 in 0.1 mi North 5.8 mph - N/A Fog Fog
7:53 AM 41.0 °F 38.0 °F 41.0 °F 100% 30.07 in 0.1 mi North 4.6 mph - N/A Fog Fog
8:40 AM 41.0 °F 36.4 °F 39.2 °F 93% 30.06 in 0.2 mi North 6.9 mph - N/A Fog Fog
8:50 AM 41.0 °F 38.0 °F 39.2 °F 93% 30.05 in 1.0 mi NE 4.6 mph - N/A Fog Patches of Fog
8:53 AM 41.0 °F 37.1 °F 39.9 °F 96% 30.06 in 1.0 mi NE 5.8 mph - N/A Fog Patches of Fog
9:17 AM 41.0 °F 39.0 °F 39.2 °F 93% 30.07 in 0.2 mi North 3.5 mph - N/A Fog Fog
9:24 AM 41.0 °F 39.0 °F 39.2 °F 93% 30.07 in 0.5 mi North 3.5 mph - 0.00 in Fog Light Drizzle
9:36 AM 41.0 °F 38.0 °F 39.2 °F 93% 30.06 in 3.0 mi North 4.6 mph - 0.00 in Fog Patches of Fog
9:46 AM 41.0 °F 38.0 °F 39.2 °F 93% 30.05 in 1.5 mi NE 4.6 mph - 0.00 in Fog Patches of Fog
9:53 AM 41.0 °F 36.4 °F 39.0 °F 93% 30.06 in 1.5 mi North 6.9 mph - 0.00 in Fog Patches of Fog
10:20 AM 41.0 °F 35.2 °F 39.2 °F 93% 30.10 in 3.0 mi NNW 9.2 mph - N/A   Overcast
10:33 AM 39.2 °F 33.6 °F 37.4 °F 93% 30.10 in 5.0 mi NNW 8.1 mph - N/A   Overcast
10:53 AM 39.9 °F 34.5 °F 37.9 °F 93% 30.11 in 4.0 mi NNW 8.1 mph - N/A   Overcast
11:53 AM 39.9 °F 35.1 °F 37.9 °F 93% 30.05 in 2.5 mi North 6.9 mph - 0.00 in   Light Drizzle
12:53 PM 39.0 °F 34.8 °F 37.0 °F 93% 30.07 in 3.0 mi NNW 5.8 mph - 0.00 in   Overcast
1:00 PM 39.2 °F 35.0 °F 37.4 °F 93% 30.05 in 2.5 mi North 5.8 mph - 0.00 in Rain Light Rain
1:53 PM 39.0 °F 34.0 °F 37.9 °F 96% 30.08 in 1.8 mi NNW 6.9 mph - 0.01 in Rain Light Rain
2:53 PM 39.0 °F 34.8 °F 37.0 °F 93% 30.06 in 4.0 mi NNE 5.8 mph - 0.01 in   Overcast
3:53 PM 39.0 °F 35.7 °F 37.0 °F 93% 30.06 in 7.0 mi North 4.6 mph - N/A   Overcast
4:53 PM 39.0 °F 34.0 °F 36.0 °F 89% 30.08 in 7.0 mi North 6.9 mph - N/A   Overcast
5:53 PM 39.0 °F 34.0 °F 36.0 °F 89% 30.09 in 6.0 mi NNW 6.9 mph - N/A   Overcast
6:53 PM 37.9 °F 32.1 °F 36.0 °F 93% 30.10 in 7.0 mi NNW 8.1 mph - N/A   Overcast
7:53 PM 36.0 °F 29.0 °F 34.0 °F 93% 30.12 in 5.0 mi NNW 9.2 mph - N/A   Overcast
8:53 PM 35.1 °F 27.9 °F 33.1 °F 92% 30.13 in 4.0 mi North 9.2 mph - N/A   Overcast
9:53 PM 34.0 °F 27.2 °F 32.0 °F 92% 30.15 in 4.0 mi NNW 8.1 mph - N/A   Overcast
10:53 PM 34.0 °F 28.0 °F 30.9 °F 89% 30.16 in 5.0 mi North 6.9 mph - N/A   Overcast
11:53 PM 33.1 °F 26.9 °F 30.0 °F 89% 30.15 in 4.0 mi NW 6.9 mph - N/A   Overcast